This is the latest recevied weather packets stored in our database for station/object W4FXD. If no packets are shown the sender has not sent any weather packets the latest 10 day(s).
| Time | Temp. | Humidity | Pressure | Rain* | Wind** | Luminosity | Snow |
|---|---|---|---|---|---|---|---|
| 1777723252 | 9.44° C | 73% | 1016.1 hPa | 0 mm | - | 60 W/m² | - |
| 1777722950 | 9.44° C | 73% | 1016.3 hPa | 0 mm | - | 55 W/m² | - |
| 1777722645 | 9.44° C | 73% | 1016 hPa | 0 mm | - | 65 W/m² | - |
| 1777722342 | 9.44° C | 73% | 1016.1 hPa | 0 mm | - | 58 W/m² | - |
| 1777722039 | 8.89° C | 72% | 1015.8 hPa | 0 mm | - | 38 W/m² | - |
| 1777721737 | 8.89° C | 73% | 1015.8 hPa | 0 mm | - | 39 W/m² | - |
| 1777721435 | 8.89° C | 73% | 1015.8 hPa | 0 mm | - | 21 W/m² | - |
| 1777721132 | 8.89° C | 73% | 1015.4 hPa | 0 mm | - | 18 W/m² | - |
| 1777720830 | 8.89° C | 75% | 1015.9 hPa | 0 mm | - | 14 W/m² | - |
| 1777720527 | 8.89° C | 74% | 1015.5 hPa | 0 mm | - | 17 W/m² | - |
| 1777720224 | 8.89° C | 74% | 1015.3 hPa | 0 mm | - | 8 W/m² | - |
| 1777719922 | 8.89° C | 74% | 1015.8 hPa | 0 mm | - | 6 W/m² | - |
| 1777719619 | 8.89° C | 75% | 1015.8 hPa | 0 mm | - | 4 W/m² | - |
| 1777719316 | 8.89° C | 75% | 1015.5 hPa | 0 mm | - | 2 W/m² | - |
| 1777719014 | 8.89° C | 75% | 1015.3 hPa | 0 mm | - | 1 W/m² | - |
| 1777718711 | 9.44° C | 74% | 1015.5 hPa | 0 mm | - | 0 W/m² | - |
| 1777718409 | 9.44° C | 75% | 1015.3 hPa | 0 mm | - | 0 W/m² | - |
| 1777718106 | 9.44° C | 75% | 1015.5 hPa | 0 mm | - | 0 W/m² | - |
| 1777717804 | 9.44° C | 74% | 1015.3 hPa | 0 mm | - | 0 W/m² | - |
| 1777717500 | 9.44° C | 74% | 1015.3 hPa | 0 mm | - | 0 W/m² | - |
| 1777717196 | 9.44° C | 73% | 1015.3 hPa | 0 mm | - | 0 W/m² | - |
| 1777716895 | 9.44° C | 73% | 1015.4 hPa | 0 mm | - | 0 W/m² | - |
| 1777716593 | 9.44° C | 73% | 1015.5 hPa | 0 mm | - | 0 W/m² | - |
| 1777716291 | 9.44° C | 74% | 1015.7 hPa | 0 mm | - | 0 W/m² | - |
| 1777715989 | 9.44° C | 73% | 1015.3 hPa | 0 mm | - | 0 W/m² | - |
* Rain latest hour (hover to see other rain measurements)
** Current wind speed in m/s (hover to see current wind gust speed)